Location: Gradaro
(45.0833°N, 10.8833°E)
Time: 21:06:34
(UTC+00:00)

ALOS - Pass Details

Date: 29 November 2020
Orbit: 683 x 685 km, 97.9° (Epoch: 21 January)

Event Time Altitude Azimuth Distance (km) Brightness Sun altitude
Rises 03:47:52 0° 14° (NNE) 3,063 5.8 -28.5°
Reaches altitude 10° 03:50:08 10° 16° (NNE) 2,143 4.9 -28.1°
Enters shadow 03:53:28 46° 26° (NNE) 921 3.0 -27.5°
